This demonstration page uses our WeatherBlox Daily Observations layout. Learn more.

Left ArrowRight Arrow

Hourly Observations for July 17, 2021

Temp ( °F °C ) Dew Point ( °F °C ) Humidity (%) Winds ( mph kmh ) Pressure ( in mb ) Visibility ( mi km ) Precip ( " mm )
12:53 am 00:53 Clear 65 18.3 43 6.1 45 45 E 5 7 29.80 1009 8 13 0.00 0.00
1:53 am 01:53 Clear 65 18.3 42 5.6 43 43 ENE 5 7 29.81 1010 8 13 0.00 0.00
2:53 am 02:53 Clear 63 17.2 41 5 45 45 NW 3 6 29.81 1010 10 16 0.00 0.00
3:53 am 03:53 Clear 62 16.7 41 5 46 46 Calm 29.82 1010 9 14 0.00 0.00
4:53 am 04:53 Clear 59 15 42 5.6 54 54 SSW 6 9 29.84 1011 9 14 0.00 0.00
5:53 am 05:53 Sunny 60 15.6 42 5.6 52 52 N 3 6 29.85 1011 8 13 0.00 0.00
6:53 am 06:53 Sunny 61 16.1 47 8.3 60 60 E 5 7 29.86 1011 7 11 0.00 0.00
7:53 am 07:53 Sunny 65 18.3 45 7.2 49 49 Calm 29.88 1012 8 13 0.00 0.00
8:53 am 08:53 Sunny 70 21.1 44 6.7 39 39 SW 3 6 29.90 1012 8 13 0.00 0.00
9:53 am 09:53 Sunny 77 25 44 6.7 31 31 SW 9 15 29.91 1013 7 11 0.00 0.00
10:53 am 10:53 Sunny 84 28.9 46 7.8 27 27 SW 14 22 29.89 1012 7 11 0.00 0.00
11:53 am 11:53 Sunny 90 32.2 43 6.1 19 19 WSW 8 13 29.89 1012 7 11 0.00 0.00
12:53 pm 12:53 Sunny 93 33.9 39 3.9 15 15 WNW 5 7 29.88 1012 8 13 0.00 0.00
1:53 pm 13:53 Sunny 96 35.6 39 3.9 14 14 NNE 6 9 29.87 1012 8 13 0.00 0.00
2:53 pm 14:53 Sunny 97 36.1 38 3.3 13 13 Calm 29.87 1011 9 14 0.00 0.00
3:53 pm 15:53 Sunny 99 37.2 38 3.3 12 12 Calm 29.86 1011 9 14 0.00 0.00
4:53 pm 16:53 Sunny 98 36.7 38 3.3 12 12 ESE 7 11 29.86 1011 9 14 0.00 0.00
5:53 pm 17:53 Sunny 98 36.7 37 2.8 12 12 W 3 6 29.86 1011 9 14 0.00 0.00
6:53 pm 18:53 Sunny 97 36.1 36 2.2 12 12 WSW 9 15 29.86 1011 9 14 0.00 0.00
7:53 pm 19:53 Sunny 92 33.3 37 2.8 14 14 W 3 6 29.87 1012 9 14 0.00 0.00
8:53 pm 20:53 Sunny 86 30 39 3.9 19 19 Calm 29.89 1012 8 13 0.00 0.00
9:53 pm 21:53 Clear 74 23.3 41 5 31 31 SSE 7 11 29.91 1013 8 13 0.00 0.00
10:53 pm 22:53 Clear 75 23.9 42 5.6 31 31 E 3 6 29.91 1013 9 14 0.00 0.00
11:53 pm 23:53 Clear 70 21.1 43 6.1 38 38 Calm 29.92 1013 8 13 0.00 0.00

Powered by AerisWeather